Location: Diebersbach
(48.5163°N, 8.0558°E)
Time: 07:38:13
(UTC+00:00)

FENGYUN 1C DEB - Visible Passes

Search period start: 29 January 2022 00:00
Search period end: 08 February 2022 00:00
Orbit: 690 x 985 km, 98.6° (Epoch: 24 January)

Date Brightness Start Highest point End Pass type
(mag) Time Alt. Az. Time Alt. Az. Time Alt. Az.
29 Jan ? 05:57:25 10° NNE 06:02:51 39° E 06:07:52 10° SSE visible
29 Jan ? 17:24:36 10° SSE 17:30:46 87° ENE 17:37:02 10° NNW visible
29 Jan ? 19:07:47 10° SW 19:11:56 19° W 19:16:09 10° NW visible
30 Jan ? 05:42:03 10° NNE 05:47:02 29° E 05:51:40 10° SSE visible
30 Jan ? 17:09:02 10° SSE 17:15:10 69° ENE 17:21:21 10° N visible
30 Jan ? 18:51:11 10° SW 18:56:05 24° W 19:01:01 10° NW visible
31 Jan ? 05:26:47 10° NE 05:31:09 22° E 05:35:16 10° SE visible
31 Jan ? 16:53:35 10° SE 16:59:36 55° ENE 17:05:37 10° N visible
31 Jan ? 18:34:51 10° SSW 18:40:15 31° W 18:45:42 10° NNW visible
01 Feb ? 05:11:46 10° NE 05:15:14 16° E 05:18:32 10° SE visible
01 Feb ? 18:18:43 10° SSW 18:24:29 40° W 18:30:17 10° NNW visible
02 Feb ? 04:57:18 10° ENE 04:59:16 12° E 05:01:12 10° ESE visible
02 Feb ? 18:02:44 10° S 18:08:44 52° W 18:14:46 10° NNW visible
03 Feb ? 06:19:31 10° NNE 06:25:07 57° E 06:30:14 10° S visible
03 Feb ? 17:46:52 10° S 17:53:02 66° WSW 17:59:12 10° NNW visible
03 Feb ? 19:32:13 10° WSW 19:34:32 12° W 19:36:52 10° WNW visible
04 Feb ? 06:04:01 10° NNE 06:09:21 42° E 06:14:14 10° SSE visible
04 Feb ? 17:31:09 10° SSE 17:37:23 84° WSW 17:43:33 10° NNW visible
04 Feb ? 19:14:53 10° WSW 19:18:37 16° W 19:22:21 10° NW visible
05 Feb ? 05:48:35 10° NNE 05:53:31 32° E 05:58:05 10° SSE visible
05 Feb ? 17:15:33 10° SSE 17:21:45 77° ENE 17:27:52 10° NNW visible
05 Feb ? 18:58:08 10° SW 19:02:44 21° W 19:07:19 10° NW visible
06 Feb ? 05:33:17 10° NE 05:37:39 24° E 05:41:44 10° SE visible
06 Feb ? 17:00:03 10° SSE 17:06:10 61° ENE 17:12:08 10° N visible
06 Feb ? 18:41:43 10° SSW 18:46:54 28° W 18:52:04 10° NW visible
07 Feb ? 05:18:10 10° NE 05:21:45 18° E 05:25:07 10° SE visible
07 Feb ? 18:25:29 10° SSW 18:31:07 35° W 18:36:40 10° NNW visible
